Location: ??
(34.9170°N, 135.5016°E)
Time: 18:52:43
(UTC+00:00)

Vanguard 1 - Visible Passes

Search period start: 04 March 2021 00:00
Search period end: 14 March 2021 00:00
Orbit: 649 x 3834 km, 34.2° (Epoch: 03 March)

Date Brightness Start Highest point End Pass type
(mag) Time Alt. Az. Time Alt. Az. Time Alt. Az.
04 Mar 9.2 20:11:55 26° W 20:14:23 83° S 20:19:29 10° E visible
05 Mar 11.9 18:18:57 15° E 18:18:57 15° E 18:19:45 10° E visible
05 Mar 9.3 20:31:39 15° W 20:35:15 75° S 20:40:32 10° ESE visible
06 Mar 11.1 18:38:42 26° E 18:38:42 26° E 18:40:40 10° E visible
06 Mar 9.5 20:51:46 10° W 20:56:06 62° SSW 21:01:31 10° ESE visible
07 Mar 10.1 18:58:26 46° E 18:58:26 46° E 19:01:35 10° E visible
08 Mar 9.1 19:18:11 79° SE 19:18:11 79° SE 19:22:30 10° E visible
09 Mar 9.1 19:37:57 53° WSW 19:38:53 72° S 19:43:25 10° ESE visible
10 Mar 9.3 19:57:43 30° W 19:59:43 57° SSW 20:04:16 10° ESE visible
11 Mar 12.1 18:04:48 13° E 18:04:48 13° E 18:05:12 10° E visible
11 Mar 9.7 20:17:31 18° W 20:20:31 42° SSW 20:24:58 10° SE visible
12 Mar 13.3 11:11:17 10° S 11:14:54 12° SSE 11:14:54 12° SSE visible
12 Mar 11.4 18:24:36 21° E 18:24:36 21° E 18:26:04 10° E visible
12 Mar 10.3 20:37:22 10° W 20:41:17 29° SSW 20:45:26 10° SE visible
13 Mar 13.1 11:28:17 10° S 11:35:08 17° SSE 11:35:08 17° SSE visible
13 Mar 10.6 18:44:26 34° ESE 18:44:26 34° ESE 18:46:52 10° ESE visible
